Flag for Germany Weather past 2 weeks in Emmendingen, Baden-Württemberg, Germany

Now
42 °F

Overcast.


Feels Like: 39 °F
Forecast: 28 / 49 °F
Wind: 5 mph from South

Location: Lahr

Current Time: Dec 22, 2014 at 4:34:21 AM

Latest Report: Dec 22, 2014 at 4:00 AM


Visibility: 28 mi

Pressure: 30.49 "Hg

Humidity: 78%

Dew point: 36 °F

Location of EmmendingenLocation

Historic Weather in Emmendingen — Graph

°F

Emmendingen temperature yesterday

Maximum temperature yesterday: 47 °F (at 2:00 PM)
Minimum temperature yesterday: 40 °F (at 1:00 AM)
Average temperature yesterday: 43 °F

Past Weeks' High & Low Weather Summary

 TemperatureHumidityPressure
High56 °F (Dec 18, 8:00 PM)100% (Dec 14, 5:00 PM)30.58 "Hg (Dec 14, 5:00 PM)
Low31 °F (Dec 9, 11:00 PM)52% (Dec 15, 3:00 PM)29.78 "Hg (Dec 12, 7:00 PM)
Average44 °F83%30.14 "Hg
* Reported Dec 7 3:00 AM — Dec 22 3:00 AM, Emmendingen, Weather by CustomWeather, © 2014

Note: Actual official high and low records may vary slightly from our data, if they occured in-between our weather recording intervals... More about our weather records

Advertising

Emmendingen weather history for previous 24 hours

 ConditionsComfort  
Time TempWeatherWind HumidityBarometerVisibility
3:00 AM
Dec 22
42 °FOvercast.3 mph78%30.50 "Hg28 mi
2:00 AM43 °FOvercast.5 mph76%30.50 "Hg28 mi
1:00 AM43 °FOvercast.5 mph78%30.50 "Hg31 mi
12:00 AM44 °FOvercast.5 mph75%30.51 "Hg31 mi
11:00 PM
Dec 21
44 °FOvercast.6 mph73%30.51 "Hg25 mi
10:00 PM44 °FOvercast.5 mph78%30.53 "Hg22 mi
9:00 PM44 °FOvercast.7 mph75%30.53 "Hg37 mi
8:00 PM44 °FOvercast.5 mph75%30.54 "Hg37 mi
7:00 PM45 °FOvercast.3 mph74%30.54 "Hg34 mi
6:00 PM45 °FOvercast.3 mph73%30.53 "Hg34 mi
5:00 PM45 °FOvercast.3 mph76%30.54 "Hg34 mi
4:00 PM46 °FOvercast.3 mph69%30.53 "Hg37 mi
3:00 PM46 °FOvercast.3 mph71%30.53 "Hg31 mi
2:00 PM47 °FOvercast.3 mph68%30.55 "Hg28 mi
1:00 PM46 °FOvercast.5 mph70%30.57 "Hg28 mi
12:00 PM46 °FPartly sunny.3 mph69%30.58 "Hg28 mi
11:00 AM45 °FOvercast.5 mph77%30.58 "Hg28 mi
10:00 AM43 °FOvercast.3 mph84%30.58 "Hg28 mi
9:00 AM42 °FPartly sunny.5 mph86%30.58 "Hg28 mi
8:00 AM41 °FPassing clouds.5 mph87%30.57 "Hg28 mi
7:00 AM41 °FOvercast.6 mph86%30.56 "Hg28 mi
6:00 AM42 °FOvercast.5 mph87%30.56 "Hg28 mi
5:00 AM41 °FOvercast.5 mph86%30.56 "Hg37 mi
4:00 AM41 °FPassing clouds.5 mph87%30.55 "Hg31 mi
Weather by CustomWeather, © 2014

See weather overviewHow to use our weather pages